[[{"header":{"parameterUnit":"m.s-1","parameterCategory":1,"la1":30.2991,"la2":30.254,"lo1":-89.0895,"lo2":-89.0444,"dy":0.0017,"dx":0.0017,"nx":28,"ny":28,"refTime":"2023-04-06T21:00:00:Z","depth":0,"parameterNumber":2,"parameterNumberName":"U-component_of_WINDS"},"data":[0,0,0,0,0,0,0,0,0,0,0,0,0,0,0,0,0,0,0,0,0,0,0,0,0,0,0,0,0,0,0,0,0,0,0,0,0,0,0,0,0,0,0,0,0,0,0,0,0,0,0,0,0,0,0,0,0,0,-2.5456,-2.5456,0,-2.5472,-2.5473,-2.5473,-2.5455,-2.5454,-2.5453,-2.5453,-2.5471,-2.5472,-2.5473,0,0,0,0,0,0,0,0,0,0,0,0,0,-2.5411,-2.5412,-2.5456,-2.5456,-2.5457,-2.5472,-2.5473,-2.5473,-2.5455,-2.5454,-2.5453,-2.5452,-2.547,-2.5472,-2.5473,0,0,0,0,0,0,0,0,0,0,0,0,0,-2.543,-2.5413,-2.5456,-2.5449,-2.5449,-2.5472,-2.5473,-2.5473,-2.5455,-2.5454,-2.5453,-2.5452,-2.547,-2.5472,-2.5473,-2.5504,0,0,-2.5478,-2.5479,0,0,0,0,0,0,0,0,-2.5429,-2.5431,-2.545,-2.545,-2.545,-2.546,-2.5463,-2.5483,-2.5455,-2.5453,-2.5453,-2.5451,-2.5468,-2.547,-2.5475,-2.5505,-2.5506,-2.5478,-2.5479,-2.548,-2.5481,0,0,0,0,0,0,0,-2.5427,-2.543,-2.5463,-2.5451,-2.545,-2.5446,-2.5448,-2.5467,-2.5466,-2.5453,-2.5452,-2.5454,-2.5468,-2.5474,-2.5476,-2.5506,-2.5478,-2.548,-2.5481,-2.5482,-2.5562,-2.5563,0,0,0,0,0,0,-2.5427,-2.543,-2.5462,-2.5463,-2.5436,-2.5448,-2.5449,-2.5458,-2.5466,-2.5466,-2.5455,-2.5453,-2.5471,-2.5474,-2.5476,-2.5512,-2.548,-2.5482,-2.5483,-2.5561,-2.5562,-2.5563,0,0,0,0,0,0,-2.5426,-2.543,-2.5461,-2.5446,-2.545,-2.545,-2.5459,-2.5459,-2.5465,-2.5467,-2.5467,-2.5461,-2.5471,-2.5474,-2.5497,-2.5513,-2.5483,-2.5484,-2.5559,-2.5561,-2.5563,-2.5585,0,0,0,0,0,0,-2.5424,-2.5429,-2.5441,-2.5446,-2.5451,-2.5482,-2.546,-2.546,-2.5467,-2.5465,-2.5473,-2.5473,-2.547,-2.5495,-2.5499,-2.5514,-2.5485,-2.5558,-2.556,-2.5562,-2.5583,-2.5587,-2.5591,0,0,0,0,0,-2.5423,-2.5447,-2.5441,-2.5445,-2.5465,-2.5483,-2.5485,-2.5481,-2.5469,-2.548,-2.5482,-2.5473,-2.5511,-2.5497,-2.5502,-2.5518,-2.5557,-2.556,-2.5562,-2.5581,-2.5586,-2.5591,0,0,0,0,0,0,-2.5444,-2.5448,-2.5441,-2.5468,-2.5475,-2.548,-2.5494,-2.5487,-2.5498,-2.5495,-2.549,-2.5492,-2.5517,-2.552,-2.5505,-2.5548,-2.5532,-2.5535,-2.5545,-2.555,-2.5554,-2.5552,-2.5487,0,0,0,0,0,-2.5451,-2.5465,-2.5468,-2.5491,-2.5495,-2.5494,-2.5502,-2.5498,-2.5505,-2.5508,-2.5511,-2.5519,-2.5533,-2.5542,-2.5555,-2.5584,-2.5585,-2.5598,-2.5602,-2.5605,-2.5608,-2.5623,-2.5628,-2.5572,-2.5572,-2.5572,0,0,-2.5467,-2.5471,-2.548,-2.5495,-2.55,-2.5515,-2.5497,-2.5513,-2.5524,-2.5511,-2.5532,-2.5535,-2.5544,-2.557,-2.5582,-2.5574,-2.5624,-2.5608,-2.5611,-2.5612,-2.5626,-2.5631,-2.5636,-2.5573,-2.5573,-2.5573,0,0,-2.5503,-2.5508,-2.5527,-2.5533,-2.554,-2.5539,-2.5544,-2.555,-2.5551,-2.5573,-2.5563,-2.5577,-2.56,-2.5607,-2.5613,-2.5652,-2.5644,-2.5657,-2.5677,-2.5692,-2.5696,-2.57,-2.5713,-2.5718,-2.566,-2.566,-2.566,0,-2.5522,-2.5543,-2.5538,-2.5555,-2.5562,-2.555,-2.557,-2.5576,-2.5588,-2.5593,-2.5584,-2.5613,-2.5618,-2.5645,-2.5654,-2.5661,-2.5665,-2.5655,-2.5696,-2.57,-2.5703,-2.5716,-2.5721,-2.5661,-2.5661,-2.5661,-2.5661,0,-2.5565,-2.558,-2.5595,-2.5606,-2.5614,-2.5633,-2.5631,-2.5641,-2.5636,-2.5637,-2.5659,-2.5665,-2.5678,-2.5685,-2.5681,-2.5712,-2.5706,-2.5697,-2.568,-2.571,-2.5721,-2.5726,-2.5663,-2.5662,-2.5662,-2.5662,0,0,-2.5614,-2.5622,-2.5627,-2.5632,-2.5639,-2.5651,-2.5669,-2.5682,-2.5689,-2.5699,-2.5713,-2.5734,-2.5725,-2.5732,-2.5729,-2.5743,-2.5772,-2.5731,-2.5731,-2.5737,-2.5805,-2.5811,-2.5816,-2.5767,-2.5768,-2.5769,-2.5803,0,-2.5649,-2.5679,-2.5675,-2.5704,-2.5717,-2.5707,-2.5723,-2.573,-2.5731,-2.5743,-2.5745,-2.5759,-2.5747,-2.5751,-2.5763,-2.5765,-2.5785,-2.5763,-2.578,-2.5781,-2.5776,-2.5822,-2.5828,-2.5861,-2.5808,-2.5809,-2.5809,0,-2.5694,-2.5703,-2.5733,-2.5738,-2.5744,-2.5758,-2.5769,-2.5781,-2.5788,-2.5788,-2.5796,-2.5791,-2.581,-2.5793,-2.5818,-2.5804,-2.5811,-2.5813,-2.5814,-2.5814,-2.5796,-2.5822,-2.5871,-2.5876,-2.5817,-2.5816,-2.5815,0,-2.5725,-2.5746,-2.5766,-2.577,-2.5777,-2.5787,-2.5791,-2.5797,-2.5805,-2.5815,-2.582,-2.5832,-2.5839,-2.5849,-2.5847,-2.5836,-2.5873,-2.5857,-2.5873,-2.5873,-2.588,-2.5879,-2.5929,-2.5887,-2.5887,-2.5887,-2.5887,0,-2.5764,-2.5782,-2.5779,-2.5792,-2.5812,-2.5808,-2.5829,-2.5831,-2.5837,-2.585,-2.5843,-2.5855,-2.5853,-2.5866,-2.5865,-2.5885,-2.5889,-2.5889,-2.5888,-2.5889,-2.5889,-2.5892,-2.5889,-2.5888,-2.5888,-2.5887,-2.5887,0,-2.5802,-2.58,-2.5822,-2.5826,-2.5828,-2.5843,-2.5847,-2.5859,-2.586,-2.5876,-2.588,-2.5881,-2.5895,-2.5895,-2.5912,-2.5911,-2.5936,-2.5933,-2.5933,-2.5932,-2.5947,-2.5945,-2.6,-2.6007,-2.5962,-2.5962,-2.5963,0,-2.5826,-2.5839,-2.5845,-2.5853,-2.5857,-2.587,-2.5877,-2.5874,-2.5883,-2.5892,-2.5903,-2.5916,-2.5927,-2.595,-2.5953,-2.5966,-2.5963,-2.5981,-2.5965,-2.5964,-2.5962,-2.596,-2.5961,-2.5984,-2.5985,-2.5985,-2.5985,0,-2.5869,-2.5867,-2.5878,-2.5889,-2.5897,-2.5906,-2.5914,-2.5921,-2.5918,-2.5928,-2.5942,-2.595,-2.5967,-2.598,-2.5993,-2.5997,-2.5991,-2.5991,-2.5995,-2.5995,-2.5993,-2.5993,-2.594,-2.5989,-2.5989,-2.5989,-2.5988,-2.5988,-2.59,-2.5911,-2.5917,-2.5929,-2.5934,-2.5941,-2.5952,-2.5954,-2.5965,-2.5978,-2.5976,-2.5992,-2.5999,-2.6015,-2.602,-2.6032,-2.6026,-2.6032,-2.6034,-2.6035,-2.6036,-2.5993,-2.6035,-2.6035,-2.6035,-2.6035,-2.6035,0,-2.5941,-2.5944,-2.5955,-2.5966,-2.5975,-2.5968,-2.5976,-2.5985,-2.5998,-2.6006,-2.6016,-2.6032,-2.6045,-2.6049,-2.6061,-2.6071,-2.6068,-2.6074,-2.6073,-2.6073,-2.6042,-2.6036,-2.6076,-2.6076,-2.6076,-2.6076,-2.6076,-2.6076,-2.5964,-2.5982,-2.5982,-2.6003,-2.6006,-2.602,-2.6025,-2.6032,-2.6037,-2.6055,-2.6066,-2.6068,-2.6074,-2.6087,-2.6098,-2.6099,-2.6104,-2.611,-2.611,-2.608,-2.6076,-2.6072,-2.6066,-2.6112,-2.6112,-2.614,-2.6141,-2.6141]},{"header":{"parameterUnit":"m.s-1","parameterCategory":1,"la1":30.2991,"la2":30.254,"lo1":-89.0895,"lo2":-89.0444,"dy":0.0017,"dx":0.0017,"nx":28,"ny":28,"refTime":"2023-04-06T21:00:00:Z","depth":0,"parameterNumber":3,"parameterNumberName":"V-component_of_WINDS"},"data":[0,0,0,0,0,0,0,0,0,0,0,0,0,0,0,0,0,0,0,0,0,0,0,0,0,0,0,0,0,0,0,0,0,0,0,0,0,0,0,0,0,0,0,0,0,0,0,0,0,0,0,0,0,0,0,0,0,0,3.2846,3.2847,0,3.2978,3.2979,3.298,3.3013,3.3012,3.3011,3.301,3.3145,3.315,3.3154,0,0,0,0,0,0,0,0,0,0,0,0,0,3.2624,3.2628,3.2846,3.2847,3.2849,3.2977,3.2979,3.2981,3.3013,3.3012,3.3011,3.301,3.3144,3.3149,3.3154,0,0,0,0,0,0,0,0,0,0,0,0,0,3.2734,3.2629,3.2845,3.2881,3.2885,3.2977,3.2979,3.2981,3.3013,3.3012,3.3011,3.301,3.3142,3.3149,3.3155,3.3221,0,0,3.3175,3.3178,0,0,0,0,0,0,0,0,3.2728,3.2742,3.2874,3.2878,3.2884,3.2978,3.295,3.3062,3.3014,3.2965,3.301,3.3009,3.3091,3.3101,3.3129,3.3228,3.3234,3.3176,3.318,3.3183,3.3185,0,0,0,0,0,0,0,3.272,3.2737,3.2898,3.2876,3.2882,3.289,3.2905,3.2972,3.3033,3.2969,3.2971,3.2987,3.3093,3.3122,3.3132,3.3235,3.3176,3.3181,3.3186,3.3188,3.3399,3.34,0,0,0,0,0,0,3.2706,3.273,3.2894,3.2902,3.2801,3.2895,3.2911,3.2949,3.3033,3.3044,3.2988,3.2988,3.3112,3.3125,3.3137,3.3223,3.3183,3.3189,3.3193,3.3397,3.3399,3.3401,0,0,0,0,0,0,3.2701,3.2721,3.2888,3.2817,3.2839,3.29,3.2942,3.2952,3.2981,3.3047,3.3058,3.3006,3.3111,3.3128,3.3201,3.3228,3.3192,3.3198,3.3395,3.3398,3.34,3.3393,0,0,0,0,0,0,3.2695,3.2719,3.2744,3.2817,3.2843,3.295,3.2944,3.2955,3.2993,3.2994,3.3067,3.3078,3.3112,3.3191,3.3207,3.3236,3.3203,3.3393,3.3396,3.3399,3.3391,3.3395,3.3398,0,0,0,0,0,3.2687,3.2736,3.2745,3.2765,3.2876,3.2951,3.2966,3.3003,3.2995,3.3021,3.3064,3.3076,3.3222,3.3198,3.3217,3.3248,3.3391,3.3395,3.3399,3.3389,3.3394,3.3398,0,0,0,0,0,0,3.2664,3.2746,3.2757,3.2831,3.2884,3.2956,3.2991,3.3006,3.3062,3.3061,3.3105,3.3121,3.3192,3.3227,3.3199,3.3318,3.3307,3.3314,3.3293,3.3298,3.3301,3.3292,3.3208,0,0,0,0,0,3.2668,3.2722,3.2791,3.285,3.2876,3.2929,3.2963,3.2987,3.3043,3.3066,3.3113,3.3168,3.3226,3.3264,3.3321,3.3396,3.3413,3.3426,3.343,3.3432,3.3439,3.3484,3.3492,3.3413,3.3413,3.3413,0,0,3.2676,3.2727,3.2759,3.2847,3.289,3.2946,3.2947,3.3005,3.3048,3.3075,3.3147,3.3184,3.3248,3.3323,3.3358,3.3354,3.3465,3.3437,3.3439,3.3444,3.3489,3.3496,3.3503,3.3415,3.3415,3.3414,0,0,3.272,3.2763,3.2819,3.2862,3.2929,3.2964,3.2977,3.3048,3.3073,3.3147,3.3169,3.322,3.3319,3.3364,3.34,3.3463,3.3477,3.348,3.3499,3.3542,3.3549,3.3554,3.3579,3.3587,3.3486,3.3486,3.3486,0,3.2722,3.2807,3.2845,3.2903,3.2942,3.2969,3.3026,3.3067,3.3148,3.3175,3.3169,3.3296,3.334,3.3428,3.3443,3.347,3.3488,3.3473,3.3544,3.3551,3.3557,3.3581,3.359,3.3486,3.3486,3.3486,3.3486,0,3.2807,3.2865,3.2902,3.2981,3.3024,3.3081,3.3129,3.3168,3.3188,3.3225,3.33,3.3355,3.3425,3.3447,3.3467,3.3538,3.3534,3.3535,3.3525,3.3564,3.3587,3.3597,3.3486,3.3486,3.3486,3.3486,0,0,3.2841,3.2941,3.2954,3.2991,3.3067,3.3113,3.3172,3.3241,3.3274,3.3329,3.3382,3.3465,3.3468,3.3509,3.3535,3.3573,3.3622,3.357,3.3573,3.358,3.3707,3.3706,3.3716,3.3632,3.3633,3.3635,3.3702,0,3.2896,3.3003,3.3039,3.3128,3.3184,3.3211,3.3263,3.3315,3.3351,3.3404,3.3443,3.3503,3.3501,3.3526,3.3565,3.3608,3.3649,3.3603,3.3682,3.3685,3.3668,3.3728,3.3728,3.3789,3.3711,3.3713,3.3714,0,3.2974,3.3032,3.3126,3.3197,3.3222,3.3268,3.3335,3.3385,3.3446,3.3469,3.3515,3.3539,3.3603,3.3588,3.3678,3.3647,3.3681,3.3707,3.3711,3.3721,3.3703,3.3743,3.3809,3.3819,3.3728,3.3727,3.3726,0,3.2993,3.3094,3.3164,3.3194,3.3278,3.331,3.3346,3.3406,3.3445,3.3504,3.3531,3.3595,3.3631,3.3682,3.3723,3.3707,3.3811,3.3798,3.3833,3.3833,3.3855,3.3854,3.393,3.3874,3.3873,3.3873,3.3873,0,3.3052,3.3109,3.3174,3.3217,3.3283,3.3325,3.3389,3.3427,3.348,3.3532,3.3558,3.3607,3.3657,3.3712,3.3745,3.3816,3.3832,3.3854,3.3862,3.3853,3.385,3.3877,3.3875,3.3876,3.3875,3.3875,3.3874,0,3.3084,3.3129,3.3208,3.3281,3.3301,3.3346,3.3409,3.3453,3.349,3.3555,3.3573,3.3631,3.3698,3.3744,3.3829,3.3851,3.3929,3.3935,3.3909,3.3914,3.3947,3.3945,3.4046,3.4062,3.3992,3.3993,3.3993,0,3.312,3.3166,3.3243,3.328,3.3317,3.3376,3.3417,3.346,3.3502,3.3575,3.3611,3.3679,3.3737,3.3842,3.3893,3.3959,3.3968,3.3999,3.3979,3.3969,3.3972,3.397,3.3976,3.4003,3.4004,3.4004,3.4004,0,3.3181,3.3201,3.3259,3.3325,3.3373,3.3427,3.3482,3.3511,3.3563,3.3609,3.3678,3.3722,3.381,3.3879,3.395,3.3988,3.4007,3.401,3.4023,3.4015,3.3999,3.401,3.392,3.4008,3.4008,3.4008,3.4007,3.4007,3.3218,3.326,3.3322,3.3386,3.3432,3.3482,3.3528,3.3571,3.3629,3.3704,3.3726,3.3798,3.3859,3.3957,3.3996,3.4054,3.4052,3.4069,3.4073,3.4078,3.4079,3.3987,3.4067,3.4067,3.4067,3.4067,3.4067,0,3.3282,3.3323,3.3382,3.3457,3.3508,3.352,3.3581,3.3623,3.3686,3.3742,3.3798,3.3878,3.3945,3.4001,3.4071,3.4107,3.4117,3.4124,3.4123,3.4132,3.4076,3.406,3.4115,3.4115,3.4115,3.4114,3.4114,3.4114,3.3321,3.3394,3.3422,3.3518,3.3559,3.363,3.3665,3.3712,3.3757,3.3846,3.3901,3.3937,3.3994,3.4068,3.413,3.4145,3.4171,3.4176,3.4193,3.4141,3.4135,3.413,3.4115,3.4181,3.4181,3.4245,3.4245,3.4246]}]]